STARLINK-11352, 62880

Orbit data source: Space-Track

STARLINK-11352, 62880 is a payload satellite owned by SpaceX/Seattle (US) in LEO that was launched on Tue, 04 Feb 2025 UTC via an FALCON 9 launch vehicle from the Air Force Eastern Test Range (AFETR). Payload-class satellites include a variety of spacecraft equipped with specific instruments for various scientific and technological missions. These include communications satellites like Starlink; space stations such as the ISS; scientific satellites like the Hubble; Earth observation satellites from companies like Planet Labs, Umbra, and HawkEye 360; GPS; miniature CubeSats for education and research; and military/defense satellites.

Loading next visibility...
Identifier
62880, 2025-024B
Orbit
LEO
Country
Flag of USUS
Related business
Manufacturer
SpaceX/Seattle
Mission
Operational Commercial Communications
Bus & Motor
STARLINK V2MD, Unknown motor
Mass
960 kg wet, ~910 kg dry
Launch date (UTC)
2025-02-04 (10 months ago)
Launch vehicle
FALCON 9
Launch site
Air Force Eastern Test Range (AFETR)
Object type
Payload
Rocket body
Debris
Shape & HBR
Box + 2 Pan, 18.1 m
Radar Cross Section
36.964 m², Large (>1 m²)

Expand to show TLE details & history
Last TLE update: 1 day ago

TLE from 1 day ago
0 STARLINK-11352
1 62880U 25024B   25348.45320038  .00274812  00000-0  20679-2 0  9994
2 62880  42.9986 335.0101 0001914 249.1856 110.8807 15.70923130 50064
Epoch: 2025-12-14T10:52Z
TLE epoch observation values (Epoch: 2025-12-14T10:52:36.512Z)
Latitude
-0.00001°
Longitude
88.49205°
Altitude
356.488 km
Speed
7.697 km/s
True Right ascension
22h 20m 02s
True Declination
0° 00' 00"
Sunlit
Object was in daylight at epoch
Visualization orbit readout
Latitude
Unknown
Longitude
Unknown
Altitude
Unknown
Speed
Unknown
Apparent Right ascension
Unknown
Apparent Declination
Unknown
Sunlit
N/A
Visualization observer readout
Local Sidereal Time
14:36:18
Azimuth
Unknown
Elevation
Unknown
Doppler factor
Unknown
Orbital elements
Apogee altitude
359.529 km
Perigee altitude
356.95 km
Semi-major axis
6,736.376 km
Eccentricity
0.00019
Inclination
42.9986°
RAAN
335.0101°
Arg. of periapsis
249.1856°
True anomaly
110.90119°
Mean anomaly
110.8807°
Eccentric anomaly
110.89095°
Mean motion
3.92558 °/min
Orbital period
91.71 mins
BSTAR
0.0020679
Loading maneuver chart data...
Computing Atmospheric mass density...
Loading historical data...
Loading historical data...
Loading historical data...
Loading historical data...
Loading historical data...
Loading historical data...
Loading historical data...

Documentation

Showing up to 5 results
|